Regional Weather Roundup
Issued by NWS

Home | Current Version | Previous Version | Graphics & Text | Print | Product List | Glossary On
Versions: 1 2 3 4 5 6 7 8 9 10 11 12 13 14 15 16 17 18 19 20 21 22 23 24 25 26 27 28 29 30 31 32 33 34 35 36 37 38 39 40 41 42 43 44 45 46 47 48 49 50
000
ASUS43 KFSD 180410
RWRSD

WEATHER ROUNDUP FOR SOUTH DAKOTA
NATIONAL WEATHER SERVICE SIOUX FALLS SD
1100 PM CDT THU AUG 17 2017

NOTE: "FAIR" INDICATES FEW OR NO CLOUDS BELOW 12,000 FEET WITH NO
SIGNIFICANT WEATHER AND/OR OBSTRUCTIONS TO VISIBILITY.


SDZ001>005-009-010-012>017-180500-
NORTHWEST AND NORTH CENTRAL SOUTH DAKOTA

CITY           SKY/WX    TMP DP  RH WIND       PRES   REMARKS
BUFFALO          N/A     69  42  37 N10       29.89S
FAITH            N/A     68  47  46 W13       29.91S
MOBRIDGE       CLOUDY    70  61  73 S8        29.84F
$$

SDZ012>016-024>037-041>051-057-063-072>074-180500-
SOUTHWEST AND SOUTH CENTRAL SOUTH DAKOTA

CITY           SKY/WX    TMP DP  RH WIND       PRES   REMARKS
RAPID CTY ARPT CLEAR     59  51  75 NW9       29.98R
PIERRE         CLOUDY    68  60  75 SE13      29.87R
CUSTER         PTCLDY    57  42  57 W5        30.13R
ELLSWORTH AFB  CLEAR     59  52  79 W8        29.98R
PHILIP         PTCLDY    68  48  48 NW8       29.89S
PINE RIDGE     CLEAR     58  53  84 CALM      29.99F
SPEARFISH      FAIR      63  45  51 CALM      30.04R
WINNER         LGT RAIN  66  59  78 S12       29.91R
$$

SDZ004>011-016>023-039-040-180500-
NORTHEAST SOUTH DAKOTA

CITY           SKY/WX    TMP DP  RH WIND       PRES   REMARKS
ABERDEEN       CLOUDY    66  62  87 S3        29.88S
WATERTOWN      PTCLDY    65  59  81 CALM      29.91R
BROOKINGS      PTCLDY    66  60  81 E3        29.91S
SISSETON         N/A     61  60  97 SW3       29.87S
$$

SDZ017-020-022-023-036>040-048>070-180500-
SOUTHEAST SOUTH DAKOTA

CITY           SKY/WX    TMP DP  RH WIND       PRES   REMARKS
SIOUX FALLS    CLOUDY    62  60  93 CALM      29.90S
HURON          LGT RAIN  62  58  86 E12       29.94F
CHAMBERLAIN    CLOUDY    68  62  82 NE9       29.91R
MITCHELL       CLOUDY    73  59  61 N17G28    29.96R
YANKTON        CLOUDY    67  62  84 E3        29.89S
$$

ABBREVIATIONS USED IN REMARKS
   TC - TEMPERATURE IN CELSIUS
  WCI - WIND CHILL INDEX
   HX - HEAT INDEX
  VSB - VISIBILITY





USA.gov is the U.S. government's official web portal to all federal, state and local government web resources and services.